Temp
-24 -24 -24 -24 -24 -24 -24 -24 -24 -24 -24 -25 -25 -25 -25 -26 -27 -28 -28 -29 -30 -30 -31 -32 -32 -32 -32 -32 -32 -32 -32 -32 -32 -32 -32 -32 -32 -33 -33 -33 -32 -32 -31 -31 -33 -32 -32 -33 -34 -35 -35 -36 -36 -36 -36 -36 -36 -36 -35 -35 -35 -35 -34
-24 -24 -24 -24 -24 -24 -24 -24 -24 -25 -25 -25 -26 -26 -27 -28 -29 -29 -30 -31 -31 -32 -32 -32 -32 -32 -32 -32 -32 -32 -32 -32 -33 -33 -33 -33 -33 -33 -33 -33 -33 -33 -32 -32 -33 -33 -33 -34 -35 -35 -36 -36 -36 -37 -37 -37 -36 -36 -36 -36 -35 -35 -35
-24 -24 -24 -25 -25 -25 -25 -25 -25 -25 -26 -26 -27 -28 -28 -29 -30 -31 -32 -32 -32 -32 -32 -32 -32 -33 -32 -32 -32 -32 -32 -33 -33 -33 -33 -33 -33 -33 -33 -34 -33 -33 -33 -33 -33 -34 -34 -34 -35 -36 -36 -37 -37 -37 -37 -37 -37 -37 -36 -36 -36 -36 -36
-25 -25 -25 -25 -25 -25 -25 -25 -26 -26 -27 -28 -28 -29 -30 -31 -32 -32 -32 -32 -32 -32 -32 -32 -32 -33 -33 -32 -32 -32 -33 -33 -33 -33 -33 -33 -33 -33 -33 -34 -34 -34 -34 -33 -33 -34 -34 -35 -35 -36 -36 -37 -37 -37 -37 -37 -37 -37 -36 -36 -36 -36 -36
-25 -25 -25 -25 -25 -25 -26 -26 -27 -27 -28 -29 -30 -31 -31 -32 -33 -33 -33 -33 -32 -32 -32 -32 -32 -32 -33 -33 -33 -33 -33 -33 -33 -33 -33 -33 -33 -33 -33 -34 -34 -34 -34 -34 -34 -34 -34 -35 -35 -36 -36 -36 -37 -37 -37 -37 -36 -36 -36 -37 -37 -37 -37
-26 -26 -26 -26 -26 -26 -27 -27 -28 -29 -30 -31 -31 -32 -32 -33 -33 -33 -33 -33 -32 -32 -32 -32 -32 -32 -33 -33 -33 -33 -33 -33 -33 -33 -33 -33 -33 -33 -34 -34 -34 -34 -34 -34 -34 -34 -34 -35 -35 -35 -36 -36 -36 -36 -36 -36 -36 -37 -37 -37 -37 -37 -37
-26 -26 -26 -26 -27 -27 -28 -29 -29 -30 -31 -32 -32 -33 -33 -33 -33 -33 -33 -33 -32 -32 -32 -32 -32 -32 -32 -33 -33 -33 -33 -33 -33 -33 -33 -34 -33 -33 -34 -34 -34 -34 -34 -34 -34 -34 -35 -35 -35 -35 -35 -36 -36 -36 -36 -36 -36 -37 -37 -37 -37 -37 -37
-26 -26 -27 -27 -28 -28 -29 -30 -31 -31 -32 -33 -33 -33 -33 -33 -33 -33 -33 -33 -32 -32 -33 -33 -33 -33 -33 -33 -33 -33 -33 -33 -33 -33 -33 -34 -34 -34 -34 -34 -34 -34 -34 -34 -34 -35 -35 -35 -35 -35 -35 -35 -36 -36 -36 -36 -36 -36 -37 -37 -38 -38 -38
-27 -27 -28 -28 -29 -30 -31 -31 -32 -32 -33 -33 -33 -33 -33 -33 -33 -33 -33 -33 -33 -33 -33 -33 -33 -33 -33 -33 -33 -33 -33 -33 -33 -33 -33 -34 -34 -34 -34 -34 -34 -34 -34 -34 -35 -35 -35 -35 -35 -35 -35 -35 -35 -36 -36 -36 -36 -36 -37 -37 -38 -38 -38
-28 -28 -29 -30 -31 -31 -32 -32 -33 -33 -33 -33 -33 -33 -33 -33 -33 -33 -33 -33 -33 -33 -33 -33 -33 -33 -33 -33 -33 -33 -33 -33 -33 -33 -33 -34 -34 -34 -34 -34 -34 -34 -34 -35 -35 -35 -35 -35 -35 -35 -35 -35 -35 -35 -36 -36 -36 -37 -37 -37 -37 -38 -38
-29 -30 -30 -31 -32 -33 -33 -33 -33 -33 -33 -33 -33 -33 -33 -33 -33 -33 -33 -33 -33 -33 -33 -33 -33 -33 -33 -33 -33 -33 -33 -33 -33 -33 -34 -34 -34 -34 -34 -34 -34 -34 -34 -35 -35 -35 -35 -35 -35 -36 -36 -36 -36 -36 -36 -36 -36 -36 -37 -37 -38 -38 -38
-30 -31 -32 -32 -33 -33 -33 -33 -33 -33 -33 -33 -33 -33 -33 -33 -33 -33 -33 -33 -33 -33 -33 -33 -33 -33 -33 -33 -33 -33 -33 -33 -33 -34 -34 -34 -34 -34 -34 -34 -34 -34 -34 -35 -35 -35 -35 -35 -35 -36 -36 -36 -36 -36 -36 -36 -36 -36 -37 -37 -38 -38 -38
-32 -32 -33 -33 -33 -34 -33 -33 -33 -33 -33 -33 -33 -33 -33 -33 -33 -33 -33 -33 -33 -33 -32 -32 -32 -32 -33 -33 -33 -33 -33 -33 -33 -34 -34 -34 -34 -35 -35 -35 -34 -34 -34 -35 -35 -35 -35 -35 -35 -36 -36 -36 -36 -36 -36 -36 -36 -37 -37 -37 -37 -38 -38
-33 -33 -34 -34 -33 -34 -34 -33 -33 -33 -33 -33 -33 -33 -33 -33 -33 -33 -33 -33 -33 -33 -33 -33 -33 -33 -33 -33 -33 -33 -33 -33 -33 -33 -34 -34 -34 -35 -35 -35 -35 -35 -35 -35 -35 -35 -35 -35 -35 -36 -36 -36 -36 -36 -36 -36 -36 -37 -37 -37 -37 -38 -38
-34 -34 -34 -34 -33 -33 -34 -33 -33 -33 -33 -33 -33 -32 -32 -33 -33 -33 -33 -33 -33 -33 -33 -33 -33 -33 -33 -33 -33 -33 -33 -33 -33 -33 -34 -34 -34 -35 -35 -36 -35 -35 -35 -35 -35 -35 -35 -36 -36 -36 -36 -36 -37 -37 -37 -37 -37 -37 -37 -37 -37 -38 -39
-34 -34 -34 -34 -33 -33 -34 -34 -33 -33 -33 -33 -32 -32 -32 -33 -33 -33 -34 -34 -34 -34 -34 -34 -33 -33 -33 -33 -33 -33 -33 -33 -33 -33 -33 -34 -34 -35 -35 -36 -35 -35 -36 -36 -36 -36 -36 -36 -36 -36 -36 -36 -37 -37 -37 -37 -37 -37 -37 -37 -37 -38 -38
-34 -34 -34 -34 -34 -33 -34 -34 -34 -33 -33 -33 -33 -32 -32 -33 -33 -33 -33 -34 -34 -34 -34 -34 -34 -34 -33 -34 -34 -34 -34 -34 -33 -33 -34 -34 -34 -34 -35 -35 -35 -36 -36 -36 -36 -36 -36 -36 -36 -36 -36 -36 -37 -37 -37 -37 -37 -37 -37 -37 -37 -37 -38
-34 -34 -34 -34 -34 -34 -33 -34 -34 -33 -33 -33 -33 -33 -32 -33 -33 -33 -33 -33 -34 -34 -34 -34 -34 -34 -34 -34 -34 -34 -34 -34 -34 -34 -34 -34 -34 -34 -35 -35 -35 -36 -36 -37 -37 -37 -37 -37 -37 -37 -37 -37 -37 -37 -37 -37 -37 -37 -37 -37 -37 -38 -38
-34 -34 -34 -34 -34 -34 -33 -33 -34 -34 -33 -33 -33 -33 -33 -33 -33 -33 -33 -33 -33 -34 -34 -34 -34 -34 -34 -34 -34 -34 -35 -35 -34 -34 -34 -34 -34 -34 -34 -35 -35 -36 -36 -37 -37 -37 -37 -37 -37 -37 -37 -37 -37 -37 -37 -38 -38 -38 -38 -37 -38 -38 -38
-34 -34 -34 -34 -34 -34 -33 -33 -33 -33 -33 -33 -33 -33 -33 -33 -33 -33 -33 -33 -33 -33 -34 -34 -34 -34 -34 -34 -34 -34 -35 -35 -35 -34 -34 -34 -34 -34 -34 -35 -35 -36 -37 -37 -37 -37 -37 -38 -38 -38 -38 -38 -38 -38 -38 -38 -38 -38 -38 -38 -38 -38 -38
-34 -34 -34 -34 -34 -34 -34 -33 -33 -33 -33 -33 -33 -33 -33 -33 -33 -33 -33 -33 -33 -33 -33 -34 -34 -34 -34 -34 -34 -34 -34 -35 -35 -35 -35 -35 -35 -34 -34 -34 -35 -36 -37 -37 -37 -38 -38 -38 -38 -38 -38 -38 -38 -38 -38 -38 -38 -38 -38 -38 -38 -38 -38
-34 -34 -34 -34 -34 -34 -34 -34 -33 -33 -33 -33 -33 -33 -33 -33 -33 -33 -33 -33 -33 -33 -33 -34 -34 -34 -34 -34 -34 -34 -34 -34 -35 -35 -35 -35 -35 -35 -35 -35 -35 -36 -37 -37 -38 -38 -38 -38 -38 -38 -38 -38 -38 -38 -38 -38 -38 -38 -38 -38 -38 -38 -38
-34 -34 -34 -34 -34 -34 -34 -34 -34 -34 -33 -33 -34 -34 -34 -34 -33 -33 -33 -33 -33 -33 -34 -34 -34 -34 -34 -34 -34 -34 -34 -34 -34 -34 -34 -35 -35 -35 -35 -35 -36 -36 -37 -37 -38 -38 -38 -38 -39 -39 -39 -38 -39 -39 -39 -39 -39 -39 -39 -39 -38 -38 -38
-34 -34 -34 -34 -34 -34 -34 -34 -34 -34 -34 -34 -34 -34 -34 -33 -33 -34 -34 -33 -34 -34 -34 -34 -34 -34 -34 -34 -34 -34 -34 -34 -34 -34 -34 -34 -35 -35 -36 -36 -37 -37 -38 -38 -38 -39 -39 -39 -39 -39 -39 -39 -39 -39 -39 -39 -39 -39 -39 -39 -39 -39 -39
-34 -33 -33 -33 -34 -34 -34 -34 -34 -34 -34 -34 -33 -33 -33 -34 -34 -34 -34 -34 -33 -33 -34 -34 -34 -34 -34 -34 -34 -34 -34 -34 -34 -34 -34 -34 -35 -36 -37 -37 -38 -38 -38 -39 -39 -39 -39 -39 -39 -39 -39 -39 -39 -39 -39 -39 -39 -39 -39 -39 -39 -39 -39
-34 -33 -33 -33 -34 -34 -34 -34 -34 -34 -33 -33 -33 -33 -33 -34 -34 -34 -34 -34 -34 -34 -34 -34 -34 -34 -34 -34 -34 -34 -34 -33 -33 -34 -34 -35 -36 -37 -37 -38 -38 -39 -39 -39 -39 -40 -40 -40 -40 -40 -40 -40 -39 -39 -39 -39 -39 -39 -39 -39 -39 -39 -39
-34 -33 -33 -33 -33 -33 -34 -34 -34 -34 -33 -33 -33 -33 -34 -34 -34 -34 -34 -34 -34 -34 -34 -34 -34 -34 -34 -34 -34 -34 -34 -34 -34 -34 -35 -36 -37 -37 -38 -38 -39 -39 -39 -39 -40 -40 -40 -40 -40 -40 -40 -40 -40 -40 -39 -39 -39 -39 -39 -39 -39 -39 -39
-34 -33 -33 -33 -33 -33 -33 -34 -34 -34 -33 -33 -33 -34 -34 -34 -34 -34 -34 -34 -34 -34 -34 -34 -34 -34 -34 -34 -34 -34 -34 -34 -35 -35 -36 -37 -38 -38 -38 -39 -39 -39 -40 -40 -40 -40 -40 -40 -40 -40 -40 -40 -40 -40 -40 -39 -39 -39 -39 -39 -39 -39 -39
-34 -33 -33 -33 -33 -33 -33 -34 -34 -34 -33 -34 -34 -34 -34 -34 -34 -34 -34 -34 -34 -34 -34 -34 -34 -34 -34 -34 -34 -34 -34 -34 -35 -36 -37 -38 -38 -39 -39 -39 -39 -39 -40 -40 -40 -40 -41 -41 -41 -40 -40 -40 -40 -40 -40 -40 -40 -39 -39 -39 -39 -39 -39
-34 -33 -33 -33 -33 -34 -33 -33 -33 -33 -34 -34 -34 -34 -34 -34 -34 -34 -34 -34 -34 -34 -34 -34 -34 -34 -34 -34 -34 -34 -34 -35 -36 -37 -38 -39 -39 -39 -39 -39 -39 -39 -40 -40 -40 -41 -41 -41 -41 -41 -40 -40 -40 -40 -40 -40 -40 -40 -40 -39 -39 -40 -40
-34 -34 -33 -33 -33 -34 -34 -34 -34 -34 -34 -34 -34 -34 -34 -34 -34 -34 -34 -34 -34 -34 -34 -34 -34 -34 -34 -34 -34 -35 -35 -36 -37 -38 -39 -39 -40 -40 -40 -40 -40 -40 -40 -40 -40 -40 -41 -41 -41 -41 -41 -41 -41 -40 -40 -40 -40 -40 -40 -40 -40 -40 -40
-34 -34 -34 -33 -33 -33 -34 -34 -34 -34 -34 -34 -34 -34 -34 -34 -35 -35 -35 -35 -34 -34 -34 -34 -34 -34 -34 -34 -35 -35 -36 -37 -38 -39 -39 -40 -40 -40 -40 -40 -40 -40 -40 -40 -40 -40 -41 -41 -41 -41 -41 -41 -41 -41 -41 -40 -40 -40 -40 -40 -40 -40 -40
-34 -34 -34 -34 -34 -34 -34 -34 -34 -34 -34 -34 -34 -34 -34 -35 -35 -35 -35 -35 -35 -35 -35 -34 -34 -34 -35 -35 -35 -36 -37 -38 -39 -39 -40 -40 -40 -40 -40 -40 -40 -40 -40 -40 -40 -41 -41 -41 -41 -41 -41 -41 -41 -41 -41 -41 -41 -41 -41 -40 -40 -40 -40
-34 -34 -34 -34 -34 -34 -34 -34 -34 -34 -34 -34 -35 -35 -35 -35 -35 -35 -35 -35 -35 -35 -35 -35 -35 -35 -35 -35 -36 -37 -38 -38 -39 -40 -40 -40 -40 -40 -41 -41 -41 -41 -40 -40 -41 -41 -41 -41 -41 -41 -41 -41 -41 -41 -41 -41 -41 -41 -41 -41 -41 -41 -41
-34 -34 -34 -34 -34 -34 -34 -34 -34 -35 -35 -35 -35 -35 -35 -35 -35 -35 -35 -35 -35 -35 -35 -35 -35 -35 -35 -36 -37 -37 -38 -39 -39 -40 -40 -40 -41 -41 -41 -41 -41 -41 -41 -41 -41 -41 -41 -41 -41 -41 -41 -41 -41 -41 -41 -41 -41 -41 -41 -41 -41 -41 -41
-34 -34 -34 -34 -34 -34 -35 -35 -35 -35 -35 -35 -35 -35 -35 -35 -35 -35 -35 -35 -35 -35 -35 -35 -35 -35 -36 -36 -37 -38 -39 -39 -40 -40 -40 -40 -41 -41 -41 -41 -41 -41 -41 -41 -41 -41 -41 -41 -41 -41 -41 -41 -41 -41 -42 -42 -42 -42 -42 -42 -42 -42 -41
Height
5531 5526 5520 5515 5509 5503 5498 5492 5486 5479 5473 5465 5457 5451 5444 5439 5433 5426 5422 5417 5413 5408 5404 5400 5394 5389 5386 5381 5376 5371 5365 5360 5352 5346 5340 5330 5323 5316 5304 5297 5290 5281 5282 5277 5261 5254 5247 5239 5241 5240 5235 5236 5238 5236 5236 5235 5235 5238 5240 5242 5243 5244 5245
5519 5514 5509 5503 5498 5492 5486 5480 5474 5467 5461 5453 5445 5438 5432 5427 5421 5416 5412 5409 5405 5402 5397 5393 5389 5384 5380 5375 5370 5365 5359 5354 5347 5339 5334 5326 5317 5312 5302 5291 5286 5277 5272 5269 5258 5247 5240 5234 5233 5233 5229 5227 5228 5228 5227 5228 5228 5229 5232 5233 5233 5233 5233
5509 5503 5498 5492 5486 5481 5474 5468 5462 5455 5448 5441 5434 5428 5422 5417 5413 5408 5405 5402 5399 5396 5392 5387 5383 5378 5374 5370 5364 5360 5354 5347 5342 5334 5327 5322 5313 5306 5300 5289 5281 5274 5267 5262 5255 5244 5236 5231 5228 5226 5223 5220 5220 5220 5220 5221 5221 5222 5223 5224 5224 5223 5223
5498 5493 5487 5481 5475 5468 5462 5456 5450 5443 5437 5430 5424 5420 5414 5409 5406 5402 5399 5397 5393 5390 5387 5382 5378 5373 5369 5365 5358 5353 5348 5341 5336 5330 5322 5316 5309 5301 5295 5287 5279 5271 5263 5257 5251 5242 5233 5228 5225 5222 5218 5215 5214 5215 5214 5215 5215 5215 5215 5215 5215 5214 5214
5487 5482 5475 5469 5463 5456 5450 5444 5438 5432 5426 5421 5415 5412 5408 5404 5400 5397 5393 5391 5388 5385 5381 5377 5373 5368 5363 5359 5354 5347 5342 5336 5330 5324 5318 5311 5305 5297 5290 5284 5276 5269 5261 5254 5247 5241 5233 5226 5222 5219 5215 5211 5210 5211 5210 5209 5209 5208 5208 5207 5206 5206 5205
5475 5470 5464 5457 5451 5445 5438 5432 5427 5423 5417 5412 5408 5405 5403 5399 5396 5392 5388 5385 5382 5379 5376 5371 5366 5362 5357 5352 5348 5342 5337 5332 5325 5319 5313 5306 5300 5293 5286 5280 5273 5266 5259 5251 5244 5238 5232 5225 5220 5216 5212 5208 5206 5206 5206 5205 5204 5202 5200 5199 5198 5198 5197
5463 5457 5452 5446 5439 5432 5427 5421 5417 5414 5410 5406 5403 5400 5398 5394 5391 5387 5383 5380 5377 5372 5369 5365 5360 5356 5352 5347 5342 5337 5331 5326 5320 5314 5308 5301 5295 5289 5282 5276 5269 5263 5256 5249 5242 5236 5230 5224 5218 5214 5210 5206 5203 5201 5200 5198 5198 5197 5194 5191 5190 5190 5188
5452 5445 5439 5434 5428 5421 5416 5412 5409 5407 5404 5401 5399 5396 5393 5390 5386 5383 5379 5374 5371 5367 5362 5359 5354 5350 5346 5341 5336 5331 5326 5320 5314 5309 5303 5296 5290 5284 5278 5272 5266 5259 5253 5246 5240 5234 5227 5222 5217 5211 5207 5203 5198 5196 5194 5191 5190 5190 5188 5185 5183 5181 5180
5440 5435 5428 5422 5417 5412 5408 5405 5403 5401 5399 5396 5394 5392 5388 5385 5381 5377 5374 5370 5365 5361 5357 5353 5349 5345 5340 5335 5330 5325 5319 5314 5308 5302 5297 5291 5285 5279 5273 5267 5261 5255 5249 5243 5237 5231 5225 5219 5214 5209 5204 5200 5195 5191 5188 5185 5183 5182 5181 5179 5176 5173 5171
5429 5424 5419 5414 5409 5404 5401 5399 5397 5396 5394 5392 5390 5388 5384 5381 5377 5372 5369 5365 5361 5357 5353 5348 5344 5339 5334 5329 5324 5319 5313 5307 5301 5295 5290 5284 5278 5273 5267 5262 5257 5251 5245 5239 5234 5228 5221 5216 5211 5205 5201 5197 5192 5187 5183 5180 5177 5175 5173 5171 5169 5167 5163
5419 5414 5410 5406 5402 5398 5395 5394 5393 5392 5390 5387 5384 5383 5380 5377 5373 5369 5364 5360 5356 5352 5348 5344 5338 5333 5329 5323 5318 5312 5307 5301 5295 5289 5283 5277 5271 5266 5260 5255 5251 5246 5241 5235 5229 5224 5217 5212 5207 5202 5197 5192 5189 5184 5179 5175 5171 5168 5166 5164 5162 5162 5159
5411 5406 5403 5400 5397 5394 5391 5389 5389 5387 5385 5382 5379 5377 5375 5372 5367 5364 5359 5355 5351 5346 5342 5338 5333 5328 5322 5317 5312 5306 5301 5295 5289 5283 5277 5271 5265 5259 5253 5248 5243 5239 5235 5230 5225 5220 5214 5207 5203 5199 5193 5188 5184 5180 5176 5171 5167 5162 5159 5157 5155 5155 5154
5403 5399 5397 5395 5392 5390 5387 5385 5384 5383 5380 5377 5375 5372 5369 5366 5362 5358 5353 5349 5344 5340 5336 5331 5327 5322 5316 5310 5305 5299 5294 5289 5283 5277 5271 5265 5259 5253 5247 5241 5235 5231 5228 5223 5219 5215 5209 5202 5197 5194 5189 5183 5179 5176 5172 5168 5163 5158 5153 5150 5148 5147 5147
5397 5394 5392 5391 5389 5386 5383 5381 5379 5378 5375 5372 5370 5367 5364 5360 5356 5352 5347 5342 5338 5334 5329 5324 5319 5315 5309 5303 5297 5292 5287 5282 5277 5271 5266 5259 5253 5247 5241 5234 5228 5223 5220 5215 5210 5208 5204 5198 5192 5188 5184 5179 5174 5171 5167 5163 5159 5154 5149 5145 5142 5140 5138
5392 5390 5388 5386 5385 5382 5379 5376 5375 5373 5370 5367 5364 5362 5359 5355 5351 5347 5342 5337 5332 5327 5322 5317 5312 5307 5302 5296 5290 5284 5279 5275 5270 5265 5260 5254 5248 5242 5235 5229 5221 5216 5212 5207 5202 5199 5195 5192 5187 5181 5177 5173 5169 5166 5162 5158 5154 5149 5145 5141 5137 5133 5130
5388 5387 5384 5382 5381 5379 5375 5372 5370 5368 5365 5362 5359 5356 5354 5350 5346 5342 5337 5332 5327 5322 5317 5311 5305 5301 5295 5289 5283 5276 5271 5266 5261 5258 5253 5248 5242 5236 5230 5223 5216 5210 5205 5199 5195 5191 5186 5183 5180 5175 5171 5166 5162 5159 5157 5154 5150 5144 5140 5137 5133 5128 5124
5385 5383 5381 5379 5376 5375 5372 5368 5365 5363 5360 5357 5354 5351 5348 5345 5341 5337 5332 5327 5322 5317 5311 5306 5299 5294 5289 5283 5277 5270 5264 5257 5253 5249 5245 5241 5236 5231 5224 5217 5210 5205 5198 5191 5185 5182 5177 5174 5170 5167 5163 5159 5155 5152 5150 5148 5145 5140 5135 5131 5128 5123 5119
5382 5380 5378 5375 5373 5370 5368 5364 5361 5358 5355 5352 5348 5345 5342 5339 5335 5331 5326 5322 5317 5312 5306 5301 5295 5288 5283 5278 5271 5264 5257 5250 5244 5241 5237 5232 5228 5224 5218 5210 5204 5200 5194 5186 5178 5173 5168 5165 5161 5157 5155 5151 5147 5145 5142 5141 5139 5135 5130 5126 5123 5119 5115
5379 5376 5374 5372 5369 5366 5364 5361 5357 5353 5350 5347 5343 5340 5337 5333 5329 5325 5320 5316 5312 5307 5301 5296 5290 5284 5277 5271 5265 5258 5251 5243 5236 5231 5228 5223 5219 5215 5210 5204 5197 5193 5187 5181 5173 5166 5160 5156 5152 5148 5146 5142 5139 5137 5135 5133 5131 5128 5125 5121 5117 5113 5111
5375 5373 5370 5368 5365 5362 5359 5356 5353 5349 5345 5342 5338 5335 5331 5327 5323 5319 5315 5311 5307 5302 5297 5291 5285 5278 5272 5265 5259 5252 5245 5237 5229 5223 5218 5213 5208 5204 5200 5194 5189 5185 5179 5173 5167 5160 5153 5148 5143 5140 5137 5134 5131 5129 5127 5125 5124 5121 5119 5116 5112 5108 5106
5372 5370 5367 5364 5361 5358 5355 5351 5348 5344 5340 5337 5333 5329 5325 5321 5317 5313 5309 5305 5301 5296 5291 5285 5279 5273 5266 5259 5253 5246 5239 5231 5223 5215 5209 5203 5197 5192 5188 5183 5179 5175 5170 5165 5159 5153 5147 5140 5135 5132 5129 5127 5124 5121 5119 5117 5116 5114 5112 5110 5107 5104 5101
5368 5366 5363 5360 5357 5354 5350 5347 5343 5340 5336 5332 5328 5324 5319 5315 5311 5307 5302 5299 5295 5289 5284 5279 5273 5267 5260 5253 5246 5239 5232 5225 5216 5208 5201 5194 5187 5181 5175 5171 5167 5163 5159 5155 5151 5146 5140 5133 5127 5124 5121 5119 5117 5114 5112 5110 5109 5107 5105 5103 5101 5098 5096
5364 5362 5359 5356 5353 5349 5346 5342 5339 5335 5331 5327 5323 5319 5314 5309 5305 5301 5296 5292 5288 5283 5277 5272 5267 5260 5253 5246 5239 5232 5225 5217 5209 5201 5193 5185 5177 5170 5164 5159 5154 5150 5146 5143 5140 5136 5131 5125 5119 5116 5113 5111 5109 5107 5104 5103 5101 5100 5098 5097 5094 5092 5091
5360 5357 5355 5352 5349 5345 5342 5338 5335 5331 5327 5323 5319 5314 5309 5305 5301 5296 5291 5286 5281 5275 5270 5265 5259 5253 5246 5239 5232 5225 5217 5210 5202 5193 5185 5177 5168 5161 5154 5148 5143 5139 5134 5131 5128 5125 5121 5116 5111 5107 5105 5103 5100 5099 5097 5095 5094 5093 5091 5090 5088 5086 5084
5355 5352 5350 5348 5345 5342 5338 5334 5331 5327 5323 5319 5315 5310 5305 5301 5296 5290 5284 5279 5274 5268 5263 5257 5251 5245 5238 5232 5225 5217 5210 5202 5194 5185 5176 5168 5159 5151 5145 5139 5134 5129 5125 5121 5118 5115 5112 5108 5103 5099 5097 5094 5092 5090 5089 5088 5086 5085 5084 5083 5081 5080 5078
5351 5348 5345 5343 5341 5338 5335 5331 5327 5323 5318 5314 5310 5306 5301 5296 5290 5284 5278 5272 5267 5262 5256 5250 5244 5237 5230 5223 5216 5208 5201 5193 5185 5176 5167 5159 5150 5142 5135 5129 5124 5119 5116 5112 5109 5105 5103 5100 5096 5092 5089 5086 5084 5082 5081 5080 5079 5078 5077 5076 5075 5073 5071
5346 5343 5341 5339 5336 5333 5331 5327 5322 5318 5313 5309 5305 5300 5296 5290 5285 5279 5273 5268 5262 5257 5250 5244 5238 5231 5224 5217 5208 5200 5191 5183 5174 5165 5157 5149 5141 5134 5128 5122 5116 5111 5107 5104 5101 5098 5095 5092 5089 5086 5082 5078 5077 5075 5073 5072 5072 5071 5069 5068 5068 5066 5064
5342 5339 5336 5334 5331 5329 5326 5323 5318 5313 5309 5304 5300 5295 5290 5285 5279 5274 5268 5263 5257 5251 5245 5238 5232 5225 5218 5211 5203 5195 5186 5176 5167 5157 5149 5141 5134 5127 5121 5116 5110 5105 5100 5096 5093 5090 5088 5085 5082 5080 5076 5072 5070 5068 5066 5064 5064 5064 5062 5061 5061 5060 5057
5338 5334 5332 5329 5326 5323 5320 5317 5313 5308 5304 5299 5294 5289 5285 5280 5274 5269 5263 5257 5251 5245 5239 5232 5225 5217 5210 5203 5195 5187 5178 5169 5159 5150 5142 5135 5128 5122 5116 5110 5105 5100 5095 5091 5087 5084 5081 5078 5076 5074 5070 5066 5064 5061 5059 5058 5057 5056 5055 5055 5054 5053 5051
5333 5330 5327 5324 5322 5319 5315 5312 5308 5304 5299 5295 5290 5285 5280 5275 5269 5263 5258 5252 5245 5238 5231 5224 5217 5209 5201 5194 5186 5177 5168 5159 5151 5143 5136 5129 5123 5117 5111 5106 5100 5095 5091 5086 5082 5078 5075 5072 5070 5068 5065 5062 5058 5055 5053 5052 5050 5049 5049 5048 5047 5046 5044
5328 5325 5323 5320 5318 5316 5312 5308 5304 5300 5296 5291 5286 5281 5276 5270 5264 5258 5252 5246 5239 5232 5224 5217 5210 5202 5193 5185 5176 5168 5159 5151 5143 5136 5129 5124 5118 5112 5107 5102 5097 5091 5087 5082 5078 5074 5070 5067 5064 5062 5059 5057 5053 5050 5048 5046 5044 5043 5043 5042 5041 5040 5038
5325 5322 5320 5317 5314 5312 5308 5305 5300 5296 5291 5287 5282 5276 5271 5264 5258 5252 5246 5239 5233 5226 5218 5210 5203 5195 5186 5177 5169 5160 5152 5144 5137 5130 5124 5118 5113 5107 5102 5097 5092 5088 5083 5078 5073 5069 5065 5062 5059 5056 5054 5051 5048 5045 5043 5041 5039 5038 5037 5036 5035 5034 5032
5323 5320 5318 5315 5311 5308 5304 5300 5296 5291 5287 5282 5276 5271 5265 5259 5252 5245 5239 5233 5227 5220 5212 5204 5196 5187 5179 5170 5161 5152 5145 5137 5131 5124 5118 5113 5107 5102 5097 5092 5087 5083 5078 5074 5069 5065 5061 5057 5054 5051 5048 5046 5043 5040 5038 5035 5033 5032 5031 5030 5029 5027 5026
5321 5318 5316 5313 5309 5306 5301 5297 5292 5287 5282 5276 5271 5266 5260 5254 5248 5240 5234 5227 5221 5213 5206 5198 5189 5181 5172 5163 5154 5146 5138 5131 5125 5119 5113 5108 5102 5097 5091 5086 5082 5077 5073 5069 5064 5060 5056 5052 5049 5046 5043 5040 5037 5035 5032 5030 5027 5026 5025 5024 5022 5021 5020
5318 5315 5312 5310 5306 5302 5297 5292 5287 5282 5277 5272 5267 5261 5256 5250 5244 5237 5229 5222 5215 5208 5200 5192 5183 5174 5165 5157 5148 5140 5132 5126 5120 5114 5108 5102 5097 5091 5086 5081 5076 5072 5068 5063 5059 5054 5050 5047 5044 5040 5037 5035 5032 5029 5026 5024 5021 5020 5018 5017 5016 5015 5014
5316 5313 5309 5306 5302 5298 5293 5288 5283 5278 5273 5267 5262 5256 5250 5245 5238 5232 5225 5217 5210 5202 5194 5185 5177 5168 5160 5151 5142 5134 5127 5120 5114 5108 5102 5097 5091 5085 5080 5074 5069 5065 5061 5057 5053 5049 5045 5041 5038 5034 5032 5029 5026 5023 5020 5018 5016 5013 5012 5011 5009 5008 5007
Wind_Speed
93 95 96 97 99 101 102 104 106 107 108 109 110 109 108 104 98 91 84 78 72 66 61 57 55 54 54 54 53 53 53 55 57 59 60 62 64 65 68 68 67 66 59 53 55 58 60 61 57 56 58 58 58 61 63 66 67 67 67 68 69 70 72
95 96 97 99 100 102 104 105 107 108 108 107 106 103 98 92 83 75 69 63 58 54 51 49 49 50 50 50 51 51 52 54 56 58 59 61 63 64 66 68 67 65 61 54 51 54 56 56 53 52 53 53 53 55 58 60 61 62 62 63 64 66 67
96 97 98 100 101 103 105 106 107 107 106 102 98 92 85 77 68 61 55 51 49 47 46 46 46 48 49 49 51 52 52 53 55 57 59 60 62 63 64 66 66 65 63 58 52 52 52 51 49 48 49 50 49 51 53 54 56 57 57 59 60 62 63
96 98 99 101 103 105 106 106 106 104 99 93 86 78 69 60 53 49 47 45 44 44 43 44 45 47 49 49 51 52 53 55 56 57 59 60 61 62 62 63 64 64 63 61 56 52 51 49 46 44 45 46 46 47 48 50 51 53 54 55 57 59 60
97 99 101 103 104 105 105 104 101 95 88 80 71 63 54 47 44 43 44 43 43 43 43 44 45 46 48 49 51 53 54 56 57 58 59 60 61 61 62 62 62 62 62 61 59 55 52 50 46 43 42 43 43 43 45 47 48 50 51 53 55 56 58
99 100 102 104 104 104 102 98 92 83 74 64 55 48 42 40 41 42 43 43 43 44 44 45 46 46 48 49 51 53 55 56 58 60 61 61 61 61 61 61 61 61 60 60 59 57 54 51 49 45 43 44 43 42 43 44 46 47 49 51 52 54 55
100 102 103 103 102 99 94 87 78 68 57 48 41 39 38 39 41 42 44 44 44 45 45 46 48 48 49 50 52 54 56 57 59 60 61 62 62 61 61 61 60 59 59 59 58 57 55 53 50 48 46 45 45 45 45 45 44 44 46 49 51 51 53
101 102 101 99 95 90 82 73 63 52 42 37 36 36 38 40 42 43 44 45 46 46 47 48 50 51 52 52 53 55 57 59 60 61 61 62 63 62 62 61 60 59 58 57 57 56 55 53 51 50 48 46 45 45 46 46 45 43 43 46 48 50 51
100 99 95 91 85 77 67 57 48 39 34 33 35 36 39 41 43 44 45 46 48 49 49 50 51 53 55 56 57 58 59 60 62 62 62 63 63 63 62 61 61 60 58 57 56 55 55 54 52 51 49 47 47 46 45 46 46 44 43 44 46 48 50
96 92 86 79 71 61 52 43 36 32 32 34 35 36 38 40 43 44 46 48 49 50 50 51 53 55 57 59 60 61 62 63 63 63 64 64 64 64 63 62 61 60 59 58 56 55 55 54 53 52 50 48 47 47 45 44 45 44 44 45 45 46 49
88 81 73 65 55 46 39 35 32 32 34 36 36 37 38 39 42 44 46 48 49 50 51 52 54 56 57 59 61 62 63 63 64 64 64 64 64 65 64 63 62 61 59 58 57 56 55 54 53 52 51 49 48 47 46 45 44 43 44 45 45 45 47
76 68 59 49 41 35 34 34 33 33 35 37 38 39 39 40 42 43 45 47 49 51 52 53 54 56 58 60 61 62 63 63 64 64 64 64 65 65 65 65 64 63 61 59 58 56 55 55 54 52 51 51 48 46 45 45 44 43 43 44 45 44 45
62 53 44 36 33 33 35 36 35 35 36 37 39 40 40 41 42 44 46 49 51 53 54 56 57 58 60 62 63 63 63 63 63 64 64 65 65 65 65 66 66 65 63 61 60 57 56 56 55 53 52 51 49 47 45 44 44 44 43 43 44 44 45
47 39 34 31 31 34 37 37 36 36 37 38 39 40 41 42 44 46 49 52 54 55 57 59 60 61 62 63 64 64 63 63 64 64 64 65 65 65 65 66 67 67 65 64 63 60 57 57 56 54 52 51 50 48 45 44 43 44 44 43 43 44 45
35 32 32 32 33 35 38 39 38 37 38 39 40 41 41 44 46 48 50 52 54 56 58 60 61 62 63 64 65 65 65 64 64 64 64 65 65 65 65 65 67 68 66 66 65 63 60 58 57 56 54 52 50 48 45 43 43 43 44 43 42 42 44
30 31 33 34 34 36 38 39 39 39 40 41 42 42 44 46 47 49 50 52 53 54 57 59 61 62 63 64 65 67 67 67 66 65 65 65 65 66 65 66 68 68 67 67 66 64 63 61 59 57 56 54 52 49 46 43 42 43 43 43 41 41 43
30 32 33 35 35 36 38 40 41 41 42 44 45 45 46 48 49 49 50 51 52 53 55 58 60 62 63 64 66 67 68 69 69 68 67 66 66 67 67 68 68 67 66 67 68 66 65 63 61 60 58 56 53 51 47 43 41 42 43 42 42 41 42
31 33 34 35 36 37 38 40 42 43 44 45 46 47 48 49 49 50 50 50 51 53 55 57 59 61 62 63 65 67 68 70 71 70 69 69 68 68 68 69 69 68 66 66 67 67 66 64 63 62 60 57 55 52 49 44 41 41 41 41 41 41 40
32 34 34 35 36 38 39 40 42 44 44 46 47 48 48 48 48 49 50 50 51 52 54 56 58 59 61 63 65 66 68 71 72 72 72 71 71 70 70 71 71 69 67 65 66 67 67 65 64 63 61 59 57 53 50 46 43 41 41 41 41 40 39
32 33 35 36 37 38 39 40 41 43 44 45 46 46 46 46 47 48 49 50 50 51 53 55 57 59 61 63 64 66 68 70 72 73 73 74 74 74 74 74 74 71 68 65 65 65 66 66 65 64 62 60 57 54 51 48 44 42 41 40 40 40 39
32 33 35 36 37 38 39 40 41 42 43 44 45 45 46 46 47 49 49 49 50 51 53 55 56 58 60 62 63 65 67 69 71 74 75 76 78 78 78 78 77 73 68 65 63 63 64 66 66 64 62 60 58 55 52 49 45 43 42 40 40 39 38
32 33 34 36 37 38 38 39 40 41 42 43 44 45 47 48 49 50 51 51 51 53 54 55 57 58 60 62 63 65 67 70 72 75 77 79 81 81 82 81 79 75 70 65 62 61 62 64 65 64 62 60 57 55 52 49 46 44 42 41 40 40 38
32 33 34 35 36 36 37 38 39 40 41 43 44 45 47 49 51 52 53 54 54 55 56 57 58 59 61 63 65 67 69 71 74 77 79 81 82 83 83 82 79 75 71 65 61 60 61 62 63 63 61 59 57 54 52 49 47 45 43 42 41 41 39
32 33 34 34 33 34 35 36 37 39 41 42 44 46 49 50 52 53 54 55 56 57 58 59 60 61 63 65 67 68 71 73 75 78 80 82 83 82 81 79 75 72 68 64 60 59 59 60 61 61 59 57 56 53 51 49 47 44 43 42 42 41 40
32 33 33 33 32 33 34 35 37 39 41 43 45 47 49 51 52 53 55 56 57 59 60 61 62 63 65 66 68 70 72 74 76 79 81 82 82 80 78 74 71 67 65 62 59 57 56 56 57 57 55 54 54 52 50 47 46 44 43 42 41 41 41
31 32 33 32 32 32 33 35 38 41 43 44 46 47 49 50 52 53 55 57 59 60 61 62 64 65 67 68 70 72 73 75 77 79 81 80 79 75 72 69 66 64 61 59 57 55 53 52 51 51 51 51 50 50 49 46 44 43 42 41 41 41 41
31 32 32 31 32 33 34 37 40 42 44 45 47 47 49 50 51 53 55 57 58 60 61 62 64 65 67 69 70 73 75 77 78 79 79 77 73 69 66 63 62 60 58 56 54 52 50 48 46 46 47 48 47 47 47 45 43 41 41 41 40 40 42
30 31 32 32 33 34 36 39 41 42 43 45 46 47 49 50 52 54 56 57 59 60 61 63 65 66 67 68 70 72 74 76 76 75 73 70 66 63 60 58 57 56 54 53 51 49 47 46 43 41 43 45 45 45 45 44 42 40 40 40 39 40 42
30 31 32 33 35 37 38 39 40 42 43 44 46 47 49 51 53 55 57 58 60 61 63 65 66 68 69 70 72 73 74 74 73 70 66 62 59 57 55 54 53 52 51 50 49 47 45 44 42 39 39 42 43 43 43 42 41 40 39 38 39 39 41
31 33 34 36 37 38 38 39 40 42 43 44 46 48 50 51 53 55 57 59 60 62 64 66 68 70 71 73 74 75 75 73 70 66 61 57 54 53 51 51 50 50 49 48 47 45 44 43 41 38 37 38 40 41 41 40 40 39 38 37 38 38 40
34 35 36 36 36 36 36 38 40 42 44 45 47 49 51 52 54 56 58 59 61 63 66 68 70 72 73 75 76 76 74 71 67 62 58 54 52 51 50 49 49 48 47 46 45 44 43 42 41 39 37 36 38 39 39 39 38 38 37 36 36 37 39
34 34 35 35 35 35 36 38 41 43 45 47 49 50 52 53 55 57 59 60 62 64 67 69 71 73 75 76 77 76 73 68 64 59 56 53 52 51 50 50 49 48 47 46 45 43 42 41 40 39 37 36 36 37 38 38 37 37 36 36 36 37 38
31 31 31 33 34 36 38 41 43 45 47 48 50 51 53 54 56 58 60 61 63 65 68 71 73 75 76 77 77 75 71 66 61 58 55 53 52 52 51 50 49 48 47 46 45 44 42 41 40 39 38 37 36 37 37 38 38 37 37 36 36 37 38
28 28 29 31 34 37 39 42 44 46 47 49 51 52 53 55 56 58 61 63 64 67 69 72 74 76 77 78 76 73 69 64 60 58 55 54 53 52 52 51 50 49 48 47 46 45 43 42 41 39 38 38 37 37 37 38 38 38 37 37 37 38 38
25 27 29 32 35 38 40 43 44 46 48 49 51 52 53 55 56 59 61 63 65 68 70 73 75 77 78 77 75 72 67 63 60 58 56 55 54 54 53 52 52 50 49 48 47 46 45 43 42 40 39 38 37 37 38 38 39 39 39 38 38 38 39
24 28 31 34 36 38 41 43 45 47 48 50 52 53 54 56 58 59 61 64 66 69 71 74 76 78 78 77 74 70 66 63 60 58 57 56 56 55 55 54 53 52 51 49 48 46 45 44 43 41 40 38 37 37 37 37 38 39 39 39 39 39 39
Wind_Direction
303 303 304 304 305 305 306 306 306 307 307 308 308 308 308 307 307 306 305 304 304 304 304 304 306 308 311 313 316 318 321 324 326 328 330 331 333 335 334 334 334 332 329 320 309 301 293 288 284 280 277 274 270 268 267 266 267 267 267 267 266 266 264
304 304 305 305 305 306 306 307 307 308 308 308 308 308 307 307 306 304 304 303 303 304 305 306 308 311 314 316 318 320 323 326 327 329 331 333 334 337 338 338 339 339 337 332 321 310 302 296 292 286 282 278 274 271 268 268 268 269 268 268 267 266 265
305 305 305 306 306 307 307 308 308 309 309 308 308 307 306 305 304 302 302 302 303 304 305 307 310 312 314 316 318 321 323 325 327 328 329 331 333 335 337 339 340 342 342 340 333 322 313 307 301 294 287 283 279 275 272 271 271 271 270 268 267 267 266
305 305 306 307 307 308 308 309 309 309 308 308 307 306 304 303 301 301 301 302 303 304 306 308 309 311 313 316 318 320 322 324 325 326 327 329 331 332 335 336 339 341 342 343 341 334 326 318 311 303 295 288 284 280 278 276 275 273 272 270 268 268 267
306 307 307 308 308 309 309 309 309 308 308 306 305 303 302 300 299 300 301 302 303 304 306 307 309 311 313 315 317 319 321 322 323 324 325 326 328 330 332 334 335 338 340 342 342 341 336 329 322 314 304 296 290 286 283 282 280 278 274 271 270 269 268
307 308 309 309 309 309 309 308 308 307 306 304 302 300 299 298 299 300 301 302 303 305 306 307 309 311 313 315 316 318 319 320 321 322 323 324 326 327 329 331 332 334 336 338 340 340 339 336 331 323 313 304 299 294 290 287 285 282 278 274 271 270 270
309 309 309 309 309 309 308 307 307 306 303 300 297 297 297 298 299 300 301 303 304 305 307 309 310 312 313 315 316 316 317 318 319 321 321 322 324 325 327 328 330 331 333 334 335 336 337 337 335 330 323 314 306 301 297 293 290 285 281 277 274 272 271
310 310 310 309 309 308 307 306 305 302 298 295 294 296 297 298 299 300 302 304 305 307 309 311 311 311 313 314 315 316 317 318 319 319 320 321 322 323 325 326 327 328 329 330 331 332 332 333 333 332 330 324 315 306 300 297 294 290 283 278 276 274 273
310 310 309 309 308 306 305 303 301 298 294 292 293 296 298 299 301 302 304 305 307 308 309 310 310 311 312 314 315 316 317 317 318 319 319 320 321 321 323 324 325 325 327 327 328 328 328 329 329 328 329 328 324 317 309 301 297 293 287 280 275 275 274
310 309 308 307 306 304 302 299 296 294 292 292 293 295 297 299 301 303 305 305 306 307 308 310 310 311 312 313 314 315 316 316 317 318 319 319 320 320 321 322 322 323 324 324 325 325 324 325 325 325 325 325 325 323 319 310 301 295 291 284 278 275 275
308 307 307 305 303 300 296 293 292 293 293 293 295 296 296 298 300 301 303 304 305 306 307 308 309 310 311 311 313 314 315 316 316 317 318 319 319 319 319 320 320 321 322 322 322 322 321 321 322 322 321 321 322 322 322 318 310 300 293 288 282 278 276
307 306 305 303 299 294 292 291 292 293 294 295 297 297 298 299 301 302 303 304 304 305 306 307 308 310 311 311 312 313 314 315 316 316 318 318 318 319 319 319 319 319 320 319 319 319 319 318 319 319 318 318 319 319 319 319 317 309 298 290 286 281 278
305 303 301 298 294 292 292 292 293 295 296 297 298 299 301 303 305 307 308 308 307 308 308 309 310 311 312 312 312 313 314 315 315 316 317 318 318 318 318 317 317 318 318 318 317 317 316 315 315 316 315 315 315 316 316 317 318 315 306 296 289 285 281
302 299 296 293 292 293 294 295 296 297 298 299 300 301 304 307 310 312 312 311 310 310 310 311 311 312 312 313 313 313 314 315 315 316 317 317 317 317 317 316 316 316 317 316 315 315 314 313 313 312 312 312 312 312 313 313 314 315 312 305 294 287 282
297 294 293 293 293 294 296 298 299 300 301 302 303 304 308 311 313 313 312 311 310 311 311 311 312 312 313 314 314 314 315 315 315 316 316 317 316 316 316 315 314 314 315 314 313 313 312 311 310 310 309 309 309 309 310 310 310 311 312 310 302 290 283
293 292 293 294 295 296 299 301 302 304 305 306 307 308 310 312 312 312 311 310 310 311 311 312 313 313 314 315 315 315 315 315 315 315 316 316 316 316 315 313 312 313 313 311 311 311 310 309 308 307 307 306 306 306 307 307 307 307 308 310 307 297 286
292 293 295 297 298 299 301 304 305 307 308 309 310 310 311 312 312 311 310 311 312 313 313 314 314 314 315 315 315 315 315 314 314 314 315 315 315 315 314 312 312 312 311 309 309 308 308 307 306 305 304 304 303 303 304 303 303 302 303 306 308 305 296
294 296 298 299 301 302 303 306 308 309 310 310 310 311 312 312 311 311 311 312 313 314 314 314 314 314 315 315 315 315 314 313 313 313 314 314 314 314 313 311 311 310 309 307 306 306 305 304 303 302 302 302 302 301 302 301 300 299 299 302 305 307 306
296 299 301 301 302 304 305 307 309 310 310 310 310 311 311 312 311 311 312 313 315 315 315 315 315 315 315 315 315 314 313 312 312 312 313 313 313 313 312 311 310 309 308 306 304 302 302 301 300 300 300 300 300 300 300 300 299 297 296 298 301 304 308
298 301 303 303 304 306 308 309 310 310 310 310 311 312 312 313 313 313 314 315 316 316 316 316 316 316 315 315 314 313 312 312 311 312 312 312 312 312 312 311 310 309 307 305 302 300 299 298 297 297 298 298 298 299 299 298 297 295 293 294 297 300 304
299 302 304 305 307 309 310 310 310 311 311 311 313 315 315 315 315 315 315 316 317 317 316 316 315 315 314 313 313 312 312 312 312 312 312 312 312 312 311 311 311 310 307 305 302 299 297 295 295 295 295 296 297 297 297 297 296 294 292 291 292 295 299
300 303 306 307 309 310 310 311 312 312 313 315 317 319 318 317 318 318 317 318 319 318 316 316 315 315 315 314 313 313 314 314 313 313 313 313 312 312 311 311 310 310 308 305 302 298 295 293 293 293 293 294 295 295 295 295 295 293 291 290 289 290 294
303 305 307 308 310 311 312 313 315 316 317 319 321 320 319 319 320 320 320 319 319 318 317 318 318 317 316 316 315 315 315 315 314 314 313 313 312 311 311 311 311 310 309 306 302 298 295 293 292 292 292 293 293 293 293 292 292 292 290 289 287 287 289
307 307 308 310 312 314 315 317 318 319 319 321 321 320 320 320 321 320 320 320 320 320 320 321 320 319 318 317 317 316 316 315 314 314 313 312 312 312 311 311 311 310 308 306 303 299 296 295 294 293 293 292 292 292 292 291 290 290 289 287 286 285 286
308 308 309 312 315 317 318 320 321 321 321 321 320 320 320 321 321 321 321 322 322 323 323 322 321 320 319 318 317 317 316 315 315 314 313 313 313 312 312 312 311 309 307 305 303 300 298 297 297 296 294 293 291 291 291 290 288 287 287 286 285 284 283
310 310 311 315 317 318 320 323 324 323 322 321 320 321 322 323 324 324 324 324 324 324 324 323 322 322 321 320 319 318 318 317 316 315 314 314 314 314 314 313 311 310 309 307 305 302 300 299 298 297 295 293 291 290 290 289 288 286 285 285 284 283 282
312 312 313 317 319 320 323 326 325 323 322 321 322 324 325 326 326 326 325 325 326 326 325 324 324 323 322 321 321 320 320 319 318 317 316 316 316 315 315 314 313 312 311 310 308 306 304 302 300 298 295 293 291 290 289 288 287 285 283 282 283 281 280
314 314 316 320 322 322 326 328 326 323 323 324 326 327 328 328 327 326 326 326 327 327 326 326 325 324 324 323 323 322 322 321 319 318 318 318 317 317 317 316 315 314 314 313 311 310 308 305 303 300 296 293 292 290 288 288 286 284 282 281 281 280 279
318 319 321 323 325 326 328 328 326 325 326 327 329 329 329 328 327 327 327 327 328 328 328 327 327 327 326 326 326 325 324 323 321 320 320 320 319 319 319 318 318 317 317 315 314 312 310 309 307 303 297 294 293 291 289 288 286 284 281 280 279 279 278
323 323 324 325 327 329 329 328 327 327 329 330 330 330 329 328 328 327 328 328 329 329 329 329 329 329 329 329 329 328 327 325 324 323 322 322 321 320 320 320 320 320 320 319 317 315 313 311 309 305 300 296 294 292 290 289 287 285 282 279 279 278 277
323 324 324 326 328 330 330 329 328 329 330 330 330 329 329 329 328 328 329 329 330 330 331 331 332 332 331 331 331 330 329 327 326 325 323 322 321 321 321 321 321 321 321 321 319 317 315 312 309 307 303 299 295 293 292 291 290 288 284 281 279 278 278
321 323 325 327 330 331 331 329 329 330 331 331 330 330 330 330 330 330 330 331 332 332 333 333 334 334 334 333 333 332 330 328 327 325 324 322 321 320 320 320 320 320 320 320 320 318 316 313 310 307 305 301 297 295 293 292 290 289 287 283 281 279 279
321 324 327 330 332 332 331 330 331 332 332 332 331 332 331 331 331 332 332 333 333 334 334 335 335 336 336 335 334 333 331 329 327 325 324 322 321 320 319 319 319 319 319 318 318 317 316 314 312 309 306 303 299 296 294 292 290 289 286 284 282 280 279
322 326 331 333 333 332 332 332 332 333 333 333 333 333 333 333 333 333 334 334 335 335 336 337 337 337 337 336 335 333 331 329 328 326 324 322 321 320 319 318 318 317 317 316 316 315 314 313 312 310 307 304 301 297 295 292 291 289 287 285 283 281 279
326 330 334 335 334 334 333 334 334 334 334 334 334 333 333 333 334 334 335 335 336 337 338 338 339 339 338 337 335 333 331 329 327 326 324 322 321 319 318 317 316 316 315 315 314 312 311 311 310 308 307 305 302 299 295 293 290 289 288 286 285 283 282
333 334 336 336 337 336 335 335 336 335 335 335 335 334 335 335 335 335 336 336 337 338 339 340 340 340 339 338 336 333 331 329 327 326 324 322 321 319 317 316 315 315 314 313 312 311 309 308 307 306 306 305 303 300 297 295 292 290 288 286 285 284 282